• In Germany
  • List of Countries
  • For 7 days
  • Water Temperature
  • Satellite Maps
  • Weather Map
  • Weather Widgets
  • user-avatar
    Login

    Hourly Weather Loubomo

    Today, 17 January, Wednesday

    Time Temperature Precipitation Wind Pressure Humidity
    00:00 +22°C° 0 mm 1 mps 700 mmHg 39%
    01:00 +21°C° 0 mm 1 mps 700 mmHg 44%
    02:00 +21°C° 0 mm 1 mps 700 mmHg 46%
    03:00 +20°C° 0 mm 1 mps 700 mmHg 49%
    04:00 +19°C° 0 mm 1 mps 700 mmHg 51%
    05:00 +19°C° 0 mm 1 mps 700 mmHg 58%
    06:00 +17°C° 0 mm 0 mps 700 mmHg 64%
    07:00 +17°C° 0 mm 0 mps 700 mmHg 70%
    08:00 +23°C° 0 mm 1 mps 701 mmHg 55%
    09:00 +26°C° 0 mm 1 mps 701 mmHg 39%
    10:00 +30°C° 0 mm 1 mps 702 mmHg 24%
    11:00 +32°C° 0 mm 1 mps 701 mmHg 20%
    12:00 +35°C° 0 mm 2 mps 701 mmHg 17%
    13:00 +36°C° 0 mm 2 mps 700 mmHg 13%
    14:00 +36°C° 0 mm 1 mps 699 mmHg 13%
    15:00 +36°C° 0 mm 1 mps 699 mmHg 13%
    16:00 +36°C° 0 mm 1 mps 698 mmHg 13%
    17:00 +33°C° 0 mm 1 mps 698 mmHg 17%
    18:00 +30°C° 0 mm 1 mps 697 mmHg 21%
    19:00 +26°C° 0 mm 1 mps 697 mmHg 26%
    20:00 +25°C° 0 mm 1 mps 698 mmHg 27%
    21:00 +24°C° 0 mm 1 mps 698 mmHg 29%
    22:00 +21°C° 0 mm 0 mps 699 mmHg 30%
    23:00 +23°C° 0 mm 1 mps 699 mmHg 33%

    Tomorrow, 18 January, Thursday

    Time Temperature Precipitation Wind Pressure Humidity
    00:00 +22°C° 0 mm 1 mps 699 mmHg 35%
    01:00 +21°C° 0 mm 1 mps 699 mmHg 38%
    02:00 +21°C° 0 mm 1 mps 699 mmHg 49%
    03:00 +20°C° 0 mm 1 mps 699 mmHg 60%
    04:00 +19°C° 0 mm 1 mps 699 mmHg 71%
    05:00 +20°C° 0 mm 1 mps 699 mmHg 78%
    06:00 +20°C° 0 mm 1 mps 700 mmHg 86%
    07:00 +18°C° 0 mm 0 mps 700 mmHg 94%
    08:00 +23°C° 0 mm 1 mps 701 mmHg 78%
    09:00 +26°C° 0 mm 1 mps 701 mmHg 63%
    10:00 +30°C° 0 mm 1 mps 702 mmHg 48%
    11:00 +32°C° 0 mm 1 mps 702 mmHg 39%
    12:00 +34°C° 0 mm 1 mps 701 mmHg 30%
    13:00 +36°C° 0 mm 1 mps 700 mmHg 21%
    14:00 +36°C° 0 mm 1 mps 700 mmHg 20%
    15:00 +36°C° 0 mm 1 mps 699 mmHg 19%
    16:00 +36°C° 0 mm 1 mps 698 mmHg 19%
    17:00 +33°C° 0 mm 1 mps 698 mmHg 24%
    18:00 +30°C° 0 mm 1 mps 698 mmHg 28%
    19:00 +27°C° 0 mm 1 mps 698 mmHg 33%
    20:00 +24°C° 0 mm 0 mps 698 mmHg 35%
    21:00 +23°C° 0 mm 0 mps 699 mmHg 37%
    22:00 +22°C° 0 mm 0 mps 700 mmHg 38%
    23:00 +24°C° 0 mm 1 mps 700 mmHg 45%

    Day after tomorrow, 19 January, Friday

    Time Temperature Precipitation Wind Pressure Humidity
    00:00 +23°C° 0 mm 1 mps 699 mmHg 52%
    01:00 +22°C° 0 mm 1 mps 699 mmHg 59%
    02:00 +22°C° 0 mm 1 mps 699 mmHg 66%
    03:00 +22°C° 0 mm 1 mps 699 mmHg 73%
    04:00 +22°C° 0 mm 1 mps 699 mmHg 80%
    05:00 +22°C° 0 mm 1 mps 700 mmHg 83%
    06:00 +22°C° 0 mm 1 mps 700 mmHg 87%
    07:00 +22°C° 0 mm 1 mps 701 mmHg 90%
    08:00 +24°C° 0 mm 1 mps 701 mmHg 79%
    09:00 +26°C° 0 mm 1 mps 702 mmHg 67%
    10:00 +29°C° 0 mm 1 mps 702 mmHg 56%
    11:00 +31°C° 0 mm 1 mps 702 mmHg 45%
    12:00 +33°C° 0 mm 1 mps 701 mmHg 35%
    13:00 +36°C° 0 mm 1 mps 700 mmHg 25%
    14:00 +36°C° 0 mm 1 mps 700 mmHg 24%
    15:00 +36°C° 0 mm 1 mps 699 mmHg 23%
    16:00 +35°C° 0 mm 1 mps 698 mmHg 22%
    17:00 +33°C° 0 mm 1 mps 698 mmHg 28%
    18:00 +30°C° 0 mm 1 mps 698 mmHg 33%
    19:00 +27°C° 0 mm 1 mps 698 mmHg 39%
    20:00 +26°C° 0 mm 1 mps 699 mmHg 43%
    21:00 +25°C° 0 mm 1 mps 699 mmHg 46%
    22:00 +24°C° 0 mm 1 mps 700 mmHg 50%
    23:00 +23°C° 0 mm 1 mps 700 mmHg 58%

    20 January, Saturday

    Time Temperature Precipitation Wind Pressure Humidity
    00:00 +23°C° 0 mm 1 mps 699 mmHg 65%
    01:00 +22°C° 0 mm 1 mps 699 mmHg 73%
    02:00 +22°C° 0 mm 1 mps 699 mmHg 80%
    03:00 +21°C° 0 mm 1 mps 699 mmHg 87%
    04:00 +20°C° 0 mm 1 mps 699 mmHg 94%
    05:00 +21°C° 0 mm 1 mps 699 mmHg 93%
    06:00 +21°C° 0 mm 1 mps 700 mmHg 93%
    07:00 +21°C° 0 mm 1 mps 700 mmHg 92%
    08:00 +24°C° 0 mm 1 mps 701 mmHg 79%
    09:00 +27°C° 0 mm 1 mps 701 mmHg 66%
    10:00 +29°C° 0 mm 1 mps 702 mmHg 53%
    11:00 +32°C° 0 mm 1 mps 701 mmHg 45%
    12:00 +34°C° 0 mm 1 mps 701 mmHg 36%
    13:00 +36°C° 0 mm 1 mps 700 mmHg 27%
    14:00 +36°C° 0 mm 1 mps 699 mmHg 26%
    15:00 +35°C° 0 mm 1 mps 698 mmHg 26%
    16:00 +35°C° 0 mm 1 mps 698 mmHg 25%
    17:00 +33°C° 0 mm 1 mps 698 mmHg 31%
    18:00 +30°C° 0 mm 1 mps 698 mmHg 38%
    19:00 +27°C° 0 mm 1 mps 698 mmHg 44%
    20:00 +26°C° 0 mm 1 mps 698 mmHg 49%
    21:00 +25°C° 0 mm 1 mps 699 mmHg 54%
    22:00 +24°C° 0 mm 1 mps 699 mmHg 59%
    23:00 +24°C° 0 mm 1 mps 699 mmHg 63%

    21 January, Sunday

    Time Temperature Precipitation Wind Pressure Humidity
    00:00 +23°C° 0 mm 1 mps 699 mmHg 67%
    01:00 +22°C° 0 mm 1 mps 699 mmHg 72%
    02:00 +22°C° 0 mm 1 mps 699 mmHg 77%
    03:00 +22°C° 0 mm 1 mps 699 mmHg 82%
    04:00 +21°C° 0 mm 1 mps 699 mmHg 87%
    05:00 +21°C° 0 mm 1 mps 699 mmHg 89%
    06:00 +21°C° 0 mm 1 mps 700 mmHg 91%
    07:00 +21°C° 0 mm 1 mps 700 mmHg 93%
    08:00 +24°C° 0 mm 1 mps 701 mmHg 79%
    09:00 +27°C° 0 mm 1 mps 701 mmHg 64%
    10:00 +30°C° 0 mm 1 mps 702 mmHg 50%
    11:00 +33°C° 0 mm 1 mps 701 mmHg 40%
    12:00 +35°C° 0 mm 1 mps 701 mmHg 31%
    13:00 +39°C° 0 mm 1 mps 700 mmHg 21%
    14:00 +36°C° 0 mm 0 mps 699 mmHg 20%
    15:00 +35°C° 0 mm 0 mps 699 mmHg 19%
    16:00 +35°C° 0 mm 0 mps 698 mmHg 18%
    17:00 +32°C° 0 mm 0 mps 698 mmHg 23%
    18:00 +28°C° 0 mm 0 mps 698 mmHg 28%
    19:00 +25°C° 0 mm 0 mps 697 mmHg 33%
    20:00 +24°C° 0 mm 0 mps 698 mmHg 35%
    21:00 +23°C° 0 mm 0 mps 698 mmHg 38%
    22:00 +22°C° 0 mm 0 mps 699 mmHg 40%
    23:00 +22°C° 0 mm 0 mps 699 mmHg 46%

    22 January, Monday

    Time Temperature Precipitation Wind Pressure Humidity
    00:00 +23°C° 0 mm 1 mps 698 mmHg 52%
    01:00 +22°C° 0 mm 1 mps 698 mmHg 59%
    02:00 +22°C° 0 mm 1 mps 699 mmHg 67%
    03:00 +22°C° 0 mm 1 mps 699 mmHg 75%
    04:00 +22°C° 0 mm 1 mps 699 mmHg 83%
    05:00 +22°C° 0 mm 1 mps 699 mmHg 87%
    06:00 +21°C° 0 mm 1 mps 700 mmHg 91%
    07:00 +21°C° 0 mm 1 mps 700 mmHg 95%
    08:00 +24°C° 0 mm 1 mps 701 mmHg 79%
    09:00 +27°C° 0 mm 1 mps 701 mmHg 63%
    10:00 +30°C° 0 mm 1 mps 702 mmHg 48%
    11:00 +33°C° 0 mm 1 mps 701 mmHg 38%
    12:00 +36°C° 0 mm 1 mps 700 mmHg 29%
    13:00 +36°C° 0 mm 0 mps 700 mmHg 20%
    14:00 +36°C° 0 mm 0 mps 699 mmHg 19%
    15:00 +37°C° 0 mm 1 mps 698 mmHg 19%
    16:00 +37°C° 0 mm 1 mps 698 mmHg 18%
    17:00 +34°C° 0 mm 1 mps 698 mmHg 23%
    18:00 +28°C° 0 mm 0 mps 698 mmHg 28%
    19:00 +25°C° 0 mm 0 mps 697 mmHg 33%
    20:00 +24°C° 0 mm 0 mps 698 mmHg 36%
    21:00 +25°C° 0 mm 1 mps 698 mmHg 40%
    22:00 +24°C° 0 mm 1 mps 699 mmHg 43%
    23:00 +24°C° 0 mm 1 mps 699 mmHg 51%
    Show more